• In India
  • List of Countries
  • For 7 days
  • Water Temperature
  • Satellite Maps
  • Weather Map
  • Weather Widgets
  • user-avatar
    Login

    Hourly Weather Popasne

    Today, 20 October, Saturday

    Time Temperature Precipitation Wind Pressure Humidity
    00:00 +13°C° 0 mm 2 mps 745 mmHg 67%
    01:00 +13°C° 0 mm 1 mps 745 mmHg 70%
    02:00 +12°C° 0 mm 1 mps 744 mmHg 77%
    03:00 +12°C° 0 mm 1 mps 744 mmHg 79%
    04:00 +12°C° 0 mm 1 mps 744 mmHg 81%
    05:00 +12°C° 0 mm 1 mps 744 mmHg 83%
    06:00 +13°C° 0 mm 1 mps 745 mmHg 80%
    07:00 +13°C° 0 mm 1 mps 745 mmHg 77%
    08:00 +14°C° 0 mm 1 mps 745 mmHg 73%
    09:00 +16°C° 0 mm 1 mps 745 mmHg 68%
    10:00 +18°C° 0 mm 1 mps 745 mmHg 62%
    11:00 +20°C° 0 mm 1 mps 745 mmHg 57%
    12:00 +20°C° 0 mm 1 mps 745 mmHg 55%
    13:00 +21°C° 0 mm 1 mps 744 mmHg 53%
    14:00 +21°C° 0 mm 1 mps 744 mmHg 51%
    15:00 +19°C° 0 mm 2 mps 744 mmHg 55%
    16:00 +18°C° 0 mm 2 mps 744 mmHg 58%
    17:00 +17°C° 0 mm 2 mps 744 mmHg 62%
    18:00 +17°C° 0 mm 2 mps 744 mmHg 63%
    19:00 +16°C° 0 mm 2 mps 744 mmHg 65%
    20:00 +16°C° 0 mm 2 mps 744 mmHg 66%
    21:00 +16°C° 0 mm 2 mps 744 mmHg 68%
    22:00 +15°C° 0 mm 2 mps 745 mmHg 69%
    23:00 +15°C° 0 mm 2 mps 745 mmHg 71%

    Tomorrow, 21 October, Sunday

    Time Temperature Precipitation Wind Pressure Humidity
    00:00 +15°C° 0 mm 2 mps 745 mmHg 72%
    01:00 +14°C° 0 mm 3 mps 745 mmHg 74%
    02:00 +13°C° 0 mm 3 mps 745 mmHg 76%
    03:00 +13°C° 0 mm 3 mps 745 mmHg 78%
    04:00 +13°C° 0 mm 3 mps 745 mmHg 80%
    05:00 +13°C° 0 mm 3 mps 745 mmHg 82%
    06:00 +13°C° 0 mm 3 mps 745 mmHg 81%
    07:00 +13°C° 0 mm 3 mps 745 mmHg 80%
    08:00 +13°C° 0 mm 4 mps 746 mmHg 79%
    09:00 +14°C° 0 mm 4 mps 746 mmHg 74%
    10:00 +17°C° 0 mm 4 mps 746 mmHg 69%
    11:00 +18°C° 0 mm 4 mps 746 mmHg 63%
    12:00 +18°C° 0 mm 4 mps 746 mmHg 62%
    13:00 +18°C° 0 mm 4 mps 746 mmHg 60%
    14:00 +19°C° 0 mm 4 mps 746 mmHg 58%
    15:00 +18°C° 0 mm 4 mps 746 mmHg 61%
    16:00 +17°C° 0 mm 4 mps 746 mmHg 64%
    17:00 +15°C° 0 mm 4 mps 746 mmHg 67%
    18:00 +15°C° 0 mm 4 mps 747 mmHg 69%
    19:00 +14°C° 0 mm 4 mps 747 mmHg 71%
    20:00 +14°C° 0 mm 5 mps 747 mmHg 73%
    21:00 +13°C° 0.2 mm 5 mps 747 mmHg 75%
    22:00 +13°C° 0.2 mm 5 mps 747 mmHg 78%
    23:00 +13°C° 0.2 mm 5 mps 747 mmHg 81%

    Day after tomorrow, 22 October, Monday

    Time Temperature Precipitation Wind Pressure Humidity
    00:00 +13°C° 0.5 mm 5 mps 747 mmHg 83%
    01:00 +12°C° 0.5 mm 5 mps 747 mmHg 85%
    02:00 +12°C° 0.5 mm 5 mps 747 mmHg 86%
    03:00 +12°C° 0.4 mm 5 mps 747 mmHg 87%
    04:00 +12°C° 0.4 mm 5 mps 747 mmHg 87%
    05:00 +12°C° 0.4 mm 5 mps 746 mmHg 88%
    06:00 +12°C° 0.7 mm 5 mps 747 mmHg 87%
    07:00 +13°C° 0.7 mm 6 mps 747 mmHg 87%
    08:00 +13°C° 0.7 mm 6 mps 747 mmHg 86%
    09:00 +13°C° 2.1 mm 6 mps 747 mmHg 86%
    10:00 +13°C° 2.1 mm 6 mps 746 mmHg 86%
    11:00 +11°C° 2.1 mm 6 mps 746 mmHg 85%
    12:00 +11°C° 1.3 mm 6 mps 746 mmHg 85%
    13:00 +13°C° 1.3 mm 5 mps 746 mmHg 84%
    14:00 +13°C° 1.3 mm 5 mps 746 mmHg 83%
    15:00 +13°C° 0.3 mm 5 mps 745 mmHg 83%
    16:00 +13°C° 0.3 mm 4 mps 745 mmHg 83%
    17:00 +13°C° 0.3 mm 4 mps 745 mmHg 83%
    18:00 +13°C° 0.1 mm 4 mps 745 mmHg 86%
    19:00 +12°C° 0.1 mm 4 mps 745 mmHg 89%
    20:00 +12°C° 0.1 mm 4 mps 745 mmHg 92%
    21:00 +11°C° 0 mm 4 mps 745 mmHg 93%
    22:00 +11°C° 0 mm 4 mps 745 mmHg 93%
    23:00 +10°C° 0 mm 4 mps 745 mmHg 93%

    23 October, Tuesday

    Time Temperature Precipitation Wind Pressure Humidity
    00:00 +10°C° 0 mm 4 mps 745 mmHg 94%
    01:00 +10°C° 0 mm 4 mps 745 mmHg 94%
    02:00 +9°C° 0 mm 3 mps 745 mmHg 94%
    03:00 +9°C° 0 mm 3 mps 745 mmHg 94%
    04:00 +9°C° 0 mm 3 mps 744 mmHg 93%
    05:00 +9°C° 0 mm 3 mps 744 mmHg 92%
    06:00 +10°C° 0 mm 3 mps 744 mmHg 90%
    07:00 +10°C° 0 mm 3 mps 744 mmHg 88%
    08:00 +10°C° 0 mm 3 mps 744 mmHg 86%
    09:00 +11°C° 0 mm 3 mps 744 mmHg 82%
    10:00 +11°C° 0 mm 3 mps 744 mmHg 79%
    11:00 +12°C° 0 mm 3 mps 744 mmHg 75%
    12:00 +12°C° 0 mm 3 mps 744 mmHg 71%
    13:00 +13°C° 0 mm 4 mps 743 mmHg 68%
    14:00 +13°C° 0 mm 4 mps 743 mmHg 64%
    15:00 +12°C° 0 mm 3 mps 743 mmHg 66%
    16:00 +11°C° 0 mm 3 mps 743 mmHg 68%
    17:00 +12°C° 0 mm 2 mps 743 mmHg 69%
    18:00 +10°C° 0 mm 2 mps 742 mmHg 69%
    19:00 +9°C° 0 mm 2 mps 742 mmHg 69%
    20:00 +9°C° 0 mm 2 mps 742 mmHg 69%
    21:00 +8°C° 0 mm 2 mps 742 mmHg 68%
    22:00 +8°C° 0 mm 2 mps 741 mmHg 67%
    23:00 +7°C° 0 mm 2 mps 741 mmHg 67%

    24 October, Wednesday

    Time Temperature Precipitation Wind Pressure Humidity
    00:00 +7°C° 0 mm 3 mps 741 mmHg 68%
    01:00 +7°C° 0 mm 3 mps 740 mmHg 68%
    02:00 +5°C° 0 mm 3 mps 740 mmHg 69%
    03:00 +5°C° 0 mm 3 mps 739 mmHg 70%
    04:00 +5°C° 0 mm 3 mps 739 mmHg 70%
    05:00 +5°C° 0 mm 4 mps 738 mmHg 71%
    06:00 +5°C° 0 mm 4 mps 738 mmHg 67%
    07:00 +6°C° 0 mm 5 mps 738 mmHg 64%
    08:00 +7°C° 0 mm 5 mps 737 mmHg 60%
    09:00 +9°C° 0 mm 6 mps 736 mmHg 57%
    10:00 +10°C° 0 mm 7 mps 736 mmHg 54%
    11:00 +11°C° 0 mm 7 mps 735 mmHg 50%
    12:00 +12°C° 0.2 mm 7 mps 734 mmHg 49%
    13:00 +13°C° 0.2 mm 8 mps 733 mmHg 48%
    14:00 +15°C° 0.2 mm 8 mps 732 mmHg 46%
    15:00 +13°C° 0.2 mm 8 mps 731 mmHg 51%
    16:00 +12°C° 0.2 mm 7 mps 730 mmHg 55%
    17:00 +13°C° 0.2 mm 6 mps 730 mmHg 60%
    18:00 +11°C° 0.5 mm 6 mps 729 mmHg 64%
    19:00 +11°C° 0.5 mm 6 mps 729 mmHg 69%
    20:00 +10°C° 0.5 mm 6 mps 729 mmHg 74%
    21:00 +9°C° 0.3 mm 6 mps 728 mmHg 76%
    22:00 +9°C° 0.3 mm 5 mps 728 mmHg 78%
    23:00 +8°C° 0.3 mm 4 mps 728 mmHg 81%

    25 October, Thursday

    Time Temperature Precipitation Wind Pressure Humidity
    00:00 +8°C° 0 mm 4 mps 727 mmHg 82%
    01:00 +8°C° 0 mm 3 mps 727 mmHg 83%
    02:00 +8°C° 0 mm 3 mps 727 mmHg 84%
    03:00 +8°C° 0.1 mm 3 mps 727 mmHg 85%
    04:00 +7°C° 0.1 mm 4 mps 727 mmHg 85%
    05:00 +6°C° 0.1 mm 4 mps 726 mmHg 86%
    06:00 +6°C° 0.2 mm 4 mps 727 mmHg 82%
    07:00 +6°C° 0.2 mm 5 mps 727 mmHg 78%
    08:00 +5°C° 0.2 mm 6 mps 727 mmHg 74%
    09:00 +5°C° 0.1 mm 6 mps 728 mmHg 70%
    10:00 +5°C° 0.1 mm 6 mps 728 mmHg 67%
    11:00 +5°C° 0.1 mm 7 mps 728 mmHg 63%
    12:00 +5°C° 0.1 mm 7 mps 729 mmHg 62%
    13:00 +5°C° 0.1 mm 7 mps 729 mmHg 61%
    14:00 +5°C° 0.1 mm 8 mps 730 mmHg 61%
    15:00 +5°C° 0 mm 7 mps 730 mmHg 63%
    16:00 +4°C° 0 mm 6 mps 731 mmHg 65%
    17:00 +5°C° 0 mm 5 mps 731 mmHg 67%
    18:00 +3°C° 0 mm 5 mps 732 mmHg 70%
    19:00 +3°C° 0 mm 5 mps 732 mmHg 73%
    20:00 +3°C° 0 mm 5 mps 733 mmHg 77%
    21:00 +2°C° 0 mm 5 mps 733 mmHg 77%
    22:00 +2°C° 0 mm 5 mps 734 mmHg 78%
    23:00 +2°C° 0 mm 5 mps 734 mmHg 79%
    Show more